sat.trackr.live / text

‹ back to catalog

STARLINK-32183

NORAD 60433 · 2024-144J

PAYLOAD ACTIVE UNKNOWN

§ Identity

Operator
Country
US
Launch date
2024-08-12
Launch site
AFETR
Launch vehicle
Mass (kg)
RCS (m²)

Purposes: comms

External: N2YO · Heavens-Above · Gunter

§ Orbital elements

Epoch: 2026-05-24T22:41:41.616384Z

Period
94.11 min
Inclination
53.1608°
Eccentricity
0.0001128
Mean motion
15.30196481 rev/d
Perigee alt
474.5 km
Apogee alt
476.0 km
Semi-major
6,853.4 km
B*
-2.5819e-5
RAAN
222.9774°
Arg perigee
78.4548°
Mean anomaly
281.6579°
Rev number
10,098

§ Raw data

STARLINK-321831 60433U 24144J   26144.94562056 -.00001124  00000+0 -25819-4 0  99932 60433  53.1608 222.9774 0001128  78.4548 281.6579 15.30196481100986

JSON: /api/v1/satellites/60433 · /tle

For live sub-satellite position, see the globe view (requires WebGL).

§ Visibility from observer

Set your observer location to see the next 7 days of passes ≥ 10°. The values pass through the URL so the page stays shareable.

No JS? Fill the form by hand. The geolocation button needs JavaScript.